TimeCDT,TemperatureF,Dew PointF,Humidity,Sea Level PressureIn,VisibilityMPH,Wind Direction,Wind SpeedMPH,Gust SpeedMPH,PrecipitationIn,Events,Conditions,WindDirDegrees,DateUTC
12:53 AM,73.0,66.0,79,30.00,10.0,North,3.5,-,N/A,,Partly Cloudy,350,2013-09-11 05:53:00
1:53 AM,72.0,64.9,78,30.01,10.0,East,9.2,-,N/A,,Partly Cloudy,90,2013-09-11 06:53:00
2:53 AM,70.0,64.9,84,30.02,10.0,East,6.9,-,N/A,,Mostly Cloudy,90,2013-09-11 07:53:00
3:53 AM,69.1,64.9,87,30.02,10.0,East,4.6,-,N/A,,Clear,90,2013-09-11 08:53:00
4:53 AM,68.0,64.0,87,30.02,10.0,East,4.6,-,N/A,,Clear,90,2013-09-11 09:53:00
5:53 AM,66.0,63.0,90,30.03,10.0,ESE,3.5,-,N/A,,Clear,110,2013-09-11 10:53:00
6:53 AM,66.9,63.0,87,30.04,10.0,SE,3.5,-,N/A,,Clear,140,2013-09-11 11:53:00
7:53 AM,70.0,62.1,76,30.05,10.0,SSW,4.6,-,N/A,,Clear,200,2013-09-11 12:53:00
8:53 AM,73.9,62.1,66,30.05,10.0,Calm,Calm,-,N/A,,Clear,0,2013-09-11 13:53:00
9:53 AM,80.1,64.0,58,30.06,10.0,West,6.9,-,N/A,,Clear,270,2013-09-11 14:53:00
10:53 AM,84.0,64.0,51,30.06,10.0,Calm,Calm,-,N/A,,Clear,0,2013-09-11 15:53:00
11:53 AM,87.1,63.0,44,30.05,10.0,SW,4.6,-,N/A,,Clear,230,2013-09-11 16:53:00
12:53 PM,90.0,60.1,37,30.04,10.0,Calm,Calm,-,N/A,,Partly Cloudy,0,2013-09-11 17:53:00
1:53 PM,90.0,61.0,38,30.02,10.0,SSW,8.1,-,N/A,,Scattered Clouds,210,2013-09-11 18:53:00
2:24 PM,89.6,60.8,38,30.09,10.0,WSW,5.8,-,N/A,Thunderstorm,Partly Cloudy,240,2013-09-11 19:24:00
2:53 PM,78.1,66.9,68,30.04,6.0,South,13.8,19.6,0.00,Rain-Thunderstorm,Light Thunderstorms and Rain,180,2013-09-11 19:53:00
3:24 PM,73.4,66.2,78,30.09,5.0,West,6.9,-,0.05,Rain-Thunderstorm,Light Thunderstorms and Rain,280,2013-09-11 20:24:00
3:53 PM,72.0,66.0,81,30.02,5.0,SW,3.5,-,0.06,Rain,Light Rain,230,2013-09-11 20:53:00
4:14 PM,77.0,69.8,78,30.05,10.0,Calm,Calm,-,0.00,Thunderstorm,Scattered Clouds,0,2013-09-11 21:14:00
4:36 PM,78.8,66.2,65,30.06,10.0,ESE,4.6,-,0.00,,Mostly Cloudy,120,2013-09-11 21:36:00
4:53 PM,79.0,66.9,66,30.03,10.0,East,15.0,19.6,0.00,,Overcast,100,2013-09-11 21:53:00
5:04 PM,78.8,66.2,65,30.09,10.0,ENE,11.5,-,N/A,Thunderstorm,Overcast,60,2013-09-11 22:04:00
5:14 PM,77.0,66.2,69,30.08,10.0,ENE,11.5,-,N/A,Thunderstorm,Thunderstorm,60,2013-09-11 22:14:00
5:33 PM,75.2,68.0,78,30.10,1.2,Variable,3.5,-,0.12,Rain-Thunderstorm,Heavy Rain,0,2013-09-11 22:33:00
5:42 PM,71.6,69.8,94,30.11,0.8,Calm,Calm,-,0.21,Rain-Thunderstorm,Heavy Thunderstorms and Rain,0,2013-09-11 22:42:00
5:53 PM,71.1,68.0,90,30.07,1.0,Variable,4.6,-,0.36,Rain-Thunderstorm,Thunderstorms and Rain,0,2013-09-11 22:53:00
5:56 PM,71.6,69.8,94,30.12,2.5,West,16.1,20.7,0.00,Rain-Thunderstorm,Light Thunderstorms and Rain,280,2013-09-11 22:56:00
6:03 PM,71.6,66.2,83,30.11,10.0,NW,15.0,21.9,0.00,Rain-Thunderstorm,Light Rain,320,2013-09-11 23:03:00
6:15 PM,69.8,66.2,88,30.11,10.0,NNW,15.0,21.9,0.00,Rain-Thunderstorm,Light Thunderstorms and Rain,330,2013-09-11 23:15:00
6:53 PM,70.0,66.9,90,30.09,9.0,NE,10.4,-,0.00,Rain,Light Rain,40,2013-09-11 23:53:00
7:53 PM,69.1,66.9,93,30.11,10.0,NNE,11.5,-,0.00,Rain,Light Rain,20,2013-09-12 00:53:00
8:53 PM,68.0,66.9,96,30.13,6.0,NNE,9.2,-,0.04,Rain,Light Rain,30,2013-09-12 01:53:00
9:53 PM,68.0,66.9,96,30.14,10.0,ENE,8.1,-,0.02,Rain,Light Rain,70,2013-09-12 02:53:00
10:53 PM,66.9,66.0,97,30.12,10.0,Calm,Calm,-,0.01,,Mostly Cloudy,0,2013-09-12 03:53:00
11:53 PM,66.9,66.9,100,30.11,10.0,Calm,Calm,-,N/A,,Mostly Cloudy,0,2013-09-12 04:53:00